EN

Hourly Weather Innsbruck

Today, 1 October, Thursday

Time Temperature Precipitation Wind Pressure Humidity
00:00 +2°C° 0 mm 1 mps 592 mmHg 82%
01:00 +2°C° 0 mm 1 mps 592 mmHg 80%
02:00 +2°C° 0 mm 1 mps 591 mmHg 79%
03:00 +2°C° 0 mm 1 mps 591 mmHg 77%
04:00 +2°C° 0 mm 1 mps 590 mmHg 76%
05:00 +2°C° 0 mm 1 mps 590 mmHg 74%
06:00 +2°C° 0 mm 1 mps 590 mmHg 72%
07:00 +2°C° 0 mm 1 mps 590 mmHg 71%
08:00 +5°C° 0 mm 1 mps 591 mmHg 69%
09:00 +7°C° 0 mm 1 mps 591 mmHg 68%
10:00 +9°C° 0 mm 0 mps 592 mmHg 66%
11:00 +9°C° 0 mm 0 mps 592 mmHg 63%
12:00 +11°C° 0 mm 1 mps 592 mmHg 59%
13:00 +12°C° 0 mm 1 mps 592 mmHg 56%
14:00 +11°C° 0 mm 1 mps 592 mmHg 61%
15:00 +10°C° 0 mm 1 mps 591 mmHg 65%
16:00 +10°C° 0 mm 1 mps 591 mmHg 70%
17:00 +8°C° 0.1 mm 1 mps 590 mmHg 76%
18:00 +6°C° 0.1 mm 1 mps 589 mmHg 83%
19:00 +4°C° 0.1 mm 0 mps 589 mmHg 89%
20:00 +4°C° 0.1 mm 1 mps 589 mmHg 91%
21:00 +4°C° 0.1 mm 1 mps 589 mmHg 92%
22:00 +4°C° 0.1 mm 1 mps 589 mmHg 94%
23:00 +4°C° 0.1 mm 1 mps 588 mmHg 94%

Tomorrow, 2 October, Friday

Time Temperature Precipitation Wind Pressure Humidity
00:00 +4°C° 0.1 mm 1 mps 588 mmHg 94%
01:00 +4°C° 0.1 mm 1 mps 588 mmHg 94%
02:00 +4°C° 0.2 mm 1 mps 587 mmHg 95%
03:00 +3°C° 0.2 mm 2 mps 587 mmHg 95%
04:00 +2°C° 0.2 mm 2 mps 586 mmHg 95%
05:00 +3°C° 0.1 mm 2 mps 586 mmHg 95%
06:00 +3°C° 0.1 mm 2 mps 586 mmHg 95%
07:00 +3°C° 0.1 mm 2 mps 585 mmHg 95%
08:00 +3°C° 0.2 mm 3 mps 585 mmHg 93%
09:00 +4°C° 0.2 mm 3 mps 585 mmHg 90%
10:00 +4°C° 0.2 mm 3 mps 586 mmHg 87%
11:00 +5°C° 0.1 mm 3 mps 586 mmHg 84%
12:00 +5°C° 0.1 mm 4 mps 585 mmHg 81%
13:00 +6°C° 0.1 mm 4 mps 585 mmHg 77%
14:00 +6°C° 0.3 mm 4 mps 585 mmHg 79%
15:00 +5°C° 0.3 mm 4 mps 585 mmHg 81%
16:00 +5°C° 0.3 mm 3 mps 585 mmHg 84%
17:00 +4°C° 0.3 mm 4 mps 584 mmHg 87%
18:00 +4°C° 0.3 mm 4 mps 584 mmHg 90%
19:00 +3°C° 0.3 mm 4 mps 583 mmHg 93%
20:00 +3°C° 0.1 mm 4 mps 583 mmHg 93%
21:00 +3°C° 0.1 mm 4 mps 583 mmHg 93%
22:00 +2°C° 0.1 mm 5 mps 583 mmHg 93%
23:00 +2°C° 0.1 mm 5 mps 583 mmHg 93%

Day after tomorrow, 3 October, Saturday

Time Temperature Precipitation Wind Pressure Humidity
00:00 +2°C° 0.1 mm 5 mps 583 mmHg 93%
01:00 +2°C° 0.1 mm 5 mps 583 mmHg 93%
02:00 +2°C° 0.1 mm 5 mps 582 mmHg 92%
03:00 +2°C° 0.1 mm 5 mps 582 mmHg 92%
04:00 +2°C° 0.1 mm 5 mps 582 mmHg 92%
05:00 +2°C° 0.4 mm 5 mps 582 mmHg 91%
06:00 +3°C° 0.4 mm 5 mps 582 mmHg 90%
07:00 +3°C° 0.4 mm 5 mps 582 mmHg 89%
08:00 +4°C° 1.7 mm 4 mps 583 mmHg 89%
09:00 +5°C° 1.7 mm 4 mps 583 mmHg 89%
10:00 +6°C° 1.7 mm 4 mps 584 mmHg 89%
11:00 +5°C° 2.9 mm 4 mps 584 mmHg 91%
12:00 +4°C° 2.9 mm 3 mps 583 mmHg 93%
13:00 +4°C° 2.9 mm 3 mps 583 mmHg 95%
14:00 +3°C° 3.3 mm 3 mps 583 mmHg 96%
15:00 +3°C° 3.3 mm 3 mps 583 mmHg 96%
16:00 +3°C° 3.3 mm 2 mps 583 mmHg 97%
17:00 +1°C° 0.4 mm 3 mps 583 mmHg 96%
18:00 +1°C° 0.4 mm 3 mps 582 mmHg 94%
19:00 -1°C° 0.4 mm 4 mps 582 mmHg 93%
20:00 -2°C° 0 mm 4 mps 583 mmHg 93%
21:00 -2°C° 0 mm 4 mps 583 mmHg 93%
22:00 -2°C° 0 mm 4 mps 583 mmHg 93%
23:00 -2°C° 0.1 mm 4 mps 583 mmHg 93%

4 October, Sunday

Time Temperature Precipitation Wind Pressure Humidity
00:00 -2°C° 0.1 mm 4 mps 583 mmHg 94%
01:00 -2°C° 0.1 mm 4 mps 583 mmHg 94%
02:00 -1°C° 0.1 mm 3 mps 584 mmHg 94%
03:00 -1°C° 0.1 mm 3 mps 584 mmHg 94%
04:00 -1°C° 0.1 mm 3 mps 584 mmHg 94%
05:00 -1°C° 0.1 mm 3 mps 584 mmHg 94%
06:00 -1°C° 0.1 mm 3 mps 585 mmHg 94%
07:00 -1°C° 0.1 mm 3 mps 585 mmHg 94%
08:00 0°C° 0.2 mm 3 mps 586 mmHg 90%
09:00 +1°C° 0.2 mm 3 mps 586 mmHg 86%
10:00 +2°C° 0.2 mm 3 mps 587 mmHg 82%
11:00 +3°C° 0.1 mm 3 mps 587 mmHg 77%
12:00 +4°C° 0.1 mm 3 mps 588 mmHg 72%
13:00 +4°C° 0.1 mm 4 mps 588 mmHg 68%
14:00 +4°C° 0 mm 4 mps 588 mmHg 67%
15:00 +4°C° 0 mm 3 mps 587 mmHg 67%
16:00 +4°C° 0 mm 3 mps 587 mmHg 67%
17:00 +2°C° 0 mm 3 mps 587 mmHg 74%
18:00 +1°C° 0 mm 3 mps 586 mmHg 81%
19:00 -1°C° 0 mm 3 mps 585 mmHg 88%
20:00 -1°C° 0.1 mm 3 mps 585 mmHg 89%
21:00 -1°C° 0.1 mm 3 mps 585 mmHg 90%
22:00 -1°C° 0.1 mm 3 mps 585 mmHg 91%
23:00 -1°C° 0.3 mm 3 mps 585 mmHg 91%

5 October, Monday

Time Temperature Precipitation Wind Pressure Humidity
00:00 -1°C° 0.3 mm 2 mps 585 mmHg 91%
01:00 -1°C° 0.3 mm 2 mps 585 mmHg 91%
02:00 +1°C° 0.5 mm 1 mps 586 mmHg 92%
03:00 +1°C° 0.5 mm 1 mps 586 mmHg 93%
04:00 +1°C° 0.5 mm 1 mps 586 mmHg 94%
05:00 +1°C° 0.5 mm 1 mps 586 mmHg 95%
06:00 +1°C° 0.5 mm 1 mps 586 mmHg 96%
07:00 +1°C° 0.5 mm 1 mps 587 mmHg 97%
08:00 +1°C° 1.1 mm 1 mps 587 mmHg 97%
09:00 +1°C° 1.1 mm 1 mps 587 mmHg 97%
10:00 +1°C° 1.1 mm 1 mps 588 mmHg 98%
11:00 +2°C° 0.4 mm 1 mps 588 mmHg 96%
12:00 +2°C° 0.4 mm 1 mps 588 mmHg 95%
13:00 +3°C° 0.4 mm 1 mps 589 mmHg 93%
14:00 +3°C° 0.1 mm 1 mps 589 mmHg 90%
15:00 +4°C° 0.1 mm 1 mps 589 mmHg 88%
16:00 +5°C° 0.1 mm 1 mps 589 mmHg 85%
17:00 +2°C° 0 mm 2 mps 589 mmHg 87%
18:00 +1°C° 0 mm 2 mps 589 mmHg 90%
19:00 -2°C° 0 mm 2 mps 589 mmHg 93%
20:00 -2°C° 0 mm 2 mps 590 mmHg 93%
21:00 0°C° 0 mm 1 mps 590 mmHg 93%
22:00 0°C° 0 mm 1 mps 590 mmHg 93%
23:00 0°C° 0 mm 1 mps 590 mmHg 92%

6 October, Tuesday

Time Temperature Precipitation Wind Pressure Humidity
00:00 -1°C° 0 mm 1 mps 590 mmHg 91%
01:00 -1°C° 0 mm 1 mps 590 mmHg 91%
02:00 -1°C° 0 mm 1 mps 590 mmHg 89%
03:00 -2°C° 0 mm 1 mps 589 mmHg 88%
04:00 -3°C° 0 mm 0 mps 589 mmHg 86%
05:00 -2°C° 0 mm 1 mps 590 mmHg 87%
06:00 -1°C° 0 mm 1 mps 590 mmHg 87%
07:00 -1°C° 0 mm 1 mps 590 mmHg 87%
08:00 0°C° 0 mm 1 mps 591 mmHg 86%
09:00 +2°C° 0 mm 1 mps 591 mmHg 85%
10:00 +3°C° 0 mm 1 mps 592 mmHg 84%
11:00 +4°C° 0.1 mm 1 mps 592 mmHg 81%
12:00 +4°C° 0.1 mm 1 mps 592 mmHg 78%
13:00 +5°C° 0.1 mm 1 mps 592 mmHg 76%
14:00 +5°C° 0.1 mm 1 mps 592 mmHg 78%
15:00 +4°C° 0.1 mm 1 mps 592 mmHg 81%
16:00 +4°C° 0.1 mm 1 mps 592 mmHg 83%
17:00 +3°C° 0 mm 1 mps 591 mmHg 87%
18:00 +1°C° 0 mm 1 mps 591 mmHg 91%
19:00 -1°C° 0 mm 0 mps 591 mmHg 95%
20:00 -1°C° 0 mm 0 mps 591 mmHg 94%
21:00 0°C° 0 mm 1 mps 592 mmHg 93%
22:00 0°C° 0 mm 1 mps 592 mmHg 93%
23:00 -1°C° 0 mm 1 mps 591 mmHg 91%
Show more